TDRS 11

Last updated on Sun Nov 09 2025 00:02:42 GMT+0000 (Coordinated Universal Time)

1 39070U 13004A 25312.51126456 .00000081 00000+0 00000+0 0 9997 2 39070 3.2114 26.8723 0001287 56.4369 334.4067 1.00266410 44488
UTC large
Height (km)
Speed (km/s)
/
Latitude / Longitude
Inclination (degrees)
Orbital Period (minutes)
Azimuth
Elevation
Range (km)
Doppler Factor

Next 0 passes for location: London (51.5072 / 0.1276)

Sorry there are no passes over London.